SCP
0 0 0 0 0 0 -0 0 0 0 0 0 0 0 0 0 0 0 0 0 0 1 1 1 1 1 1 1 1 1 1 1 1 1 1 1 0 0 0 0 0 0 0 0
0 0 0 0 0 0 -0 0 0 0 0 0 0 0 0 0 0 0 0 0 0 1 1 1 1 1 1 1 1 1 1 1 1 0 0 1 1 0 0 0 0 0 0 0
0 0 0 0 0 0 0 0 0 0 0 0 0 0 0 0 0 0 0 0 0 0 1 1 1 1 1 1 1 1 1 1 1 0 0 0 0 0 0 0 0 0 0 0
0 0 0 0 0 0 0 0 0 0 0 0 0 0 0 0 0 0 0 0 0 0 0 1 1 1 1 1 1 1 1 1 1 0 0 0 0 0 0 0 0 0 0 0
0 0 0 0 0 0 0 0 0 0 0 0 0 0 0 0 0 0 0 0 0 0 0 0 1 1 1 1 1 1 1 1 1 0 0 0 0 0 0 0 0 0 0 0
0 0 0 0 0 0 0 0 0 0 0 0 0 0 0 0 0 0 0 0 0 0 0 0 0 0 0 0 0 1 1 1 1 0 0 0 0 0 0 0 0 0 0 0
0 0 0 0 0 0 -0 0 0 0 0 0 0 0 0 0 0 0 0 0 0 0 0 0 0 0 0 0 0 0 0 1 1 1 0 0 0 0 0 0 0 0 0 0
0 0 0 0 0 0 -0 -0 0 0 0 0 0 0 0 0 0 0 0 0 0 0 0 0 0 0 0 0 0 0 0 1 1 1 0 0 0 0 0 0 0 0 0 0
0 0 0 0 0 0 0 -0 0 0 0 0 0 0 0 0 0 0 0 0 0 0 0 0 0 0 0 0 0 0 0 0 1 1 1 0 0 0 0 0 0 0 0 0
0 0 0 0 0 0 0 0 0 0 0 0 0 0 0 0 0 0 0 0 0 0 0 0 0 0 0 0 0 0 0 0 0 0 0 0 0 0 0 0 0 0 0 0
0 0 0 0 0 0 0 0 0 0 0 0 0 0 0 0 0 0 0 0 0 0 0 0 0 0 0 0 0 0 0 0 0 0 0 0 0 0 0 0 0 0 0 0
0 0 0 0 0 0 0 0 0 0 0 0 0 0 0 0 0 0 0 0 0 0 0 0 0 0 0 0 0 0 0 0 0 0 0 0 0 0 0 0 0 0 0 0
0 0 0 0 0 0 0 0 0 0 0 0 0 0 0 0 0 0 0 0 1 1 1 0 0 0 0 0 0 0 0 0 0 0 0 0 0 0 0 0 0 0 0 0
0 0 0 0 0 0 0 0 0 0 0 0 0 0 0 0 0 0 0 1 1 1 1 1 0 0 0 0 0 0 0 0 0 0 0 0 0 0 0 0 0 0 0 0
0 0 0 0 0 0 0 0 0 0 0 0 0 0 0 0 0 0 1 1 1 1 1 1 1 0 0 0 0 0 0 0 0 0 0 0 0 0 0 0 0 0 0 0
0 0 0 0 0 0 0 0 0 0 0 0 0 0 0 0 1 1 1 1 1 1 1 1 1 1 0 0 0 0 0 0 0 0 0 0 0 0 0 0 0 0 0 0
0 0 0 0 0 0 0 0 0 0 0 0 0 0 0 1 1 1 1 1 1 1 1 1 1 1 1 0 0 0 0 0 0 0 0 0 0 0 0 0 0 0 0 0
0 0 0 0 0 0 0 0 0 0 0 0 0 0 1 1 1 1 1 1 1 1 1 1 1 1 1 0 0 0 0 0 0 0 0 0 0 0 0 0 0 0 0 0
0 0 0 0 0 0 0 0 0 0 0 0 0 0 1 1 1 1 1 1 1 1 1 1 1 1 0 0 0 0 0 1 1 0 0 0 0 0 0 0 1 1 1 1
0 0 0 0 0 0 0 0 0 0 0 0 0 1 1 1 1 1 1 1 1 1 1 1 1 1 0 0 0 0 1 1 1 0 0 0 0 0 0 0 1 1 1 1
0 0 0 0 0 0 0 0 0 0 0 0 1 1 1 1 1 1 1 1 1 1 1 1 1 1 0 0 0 1 1 1 0 0 0 0 0 0 0 0 0 0 0 0
0 0 0 0 0 0 0 0 0 0 0 0 1 1 1 1 1 1 0 0 0 0 0 1 1 0 0 0 1 1 0 0 0 0 0 0 0 0 0 0 0 0 0 0
0 0 0 0 0 0 0 0 0 0 0 0 0 0 1 0 0 0 0 0 0 0 0 0 0 0 0 0 0 0 0 0 0 0 0 0 0 0 0 0 0 0 0 0
0 0 0 0 0 0 0 0 0 0 0 0 0 0 0 0 0 0 0 0 0 0 0 0 0 0 0 0 0 0 0 0 0 0 0 0 0 0 0 0 0 0 0 0
0 0 0 0 0 0 0 0 0 0 0 0 0 0 0 0 0 0 0 0 0 0 0 0 0 0 0 0 0 0 0 0 0 0 0 0 0 0 0 0 0 0 0 0
0 0 0 0 0 0 0 0 0 0 0 0 0 0 0 0 0 0 0 0 0 0 0 0 0 0 0 0 0 0 0 0 0 0 0 0 0 0 0 0 0 0 0 0
Wind_Speed
10 11 12 11 11 8 6 8 8 5 5 8 7 6 2 1 3 3 4 5 6 7 8 10 10 11 12 12 13 13 13 12 10 8 8 8 7 6 6 6 7 7 7 7
9 14 12 7 7 9 10 11 9 5 2 7 7 7 2 2 2 2 3 5 6 7 9 10 11 11 12 13 13 13 13 12 11 8 7 6 6 5 5 5 6 7 7 7
15 3 7 11 11 12 12 11 8 6 6 6 8 7 4 4 3 3 4 4 6 8 9 10 11 11 11 12 13 12 13 12 12 10 7 6 5 5 6 6 6 7 7 7
14 8 7 11 13 13 11 8 7 7 9 4 4 7 2 3 4 5 5 6 7 7 8 9 10 10 11 11 12 12 12 12 11 11 10 11 9 8 8 6 6 7 7 7
10 11 12 13 12 12 8 3 6 7 8 9 7 8 3 3 3 3 6 6 7 7 8 9 9 9 9 10 10 10 11 11 12 12 11 11 10 8 6 6 7 7 6 7
9 6 10 11 9 10 7 6 6 8 9 10 6 8 5 1 2 1 4 6 7 7 7 8 7 8 8 9 9 10 11 11 11 12 12 12 11 9 9 8 8 8 6 6
13 13 11 9 10 10 11 10 9 10 9 7 3 7 4 2 1 1 2 6 7 7 7 8 8 8 8 9 10 11 11 11 11 11 11 12 11 11 11 9 8 8 7 7
13 12 14 13 15 11 14 14 9 7 6 5 6 6 1 3 2 2 3 6 8 8 8 8 8 8 8 9 10 10 11 11 11 11 10 10 11 9 8 9 8 7 6 7
10 8 8 10 12 13 13 14 13 10 8 7 5 4 4 5 5 5 5 7 8 8 8 8 8 8 8 8 9 9 10 10 10 10 9 9 9 9 8 8 8 7 6 6
6 6 9 8 8 10 10 10 8 10 8 9 7 7 4 5 6 6 7 8 8 9 9 9 8 8 8 8 8 8 9 9 9 9 8 7 8 8 8 8 8 8 7 7
11 9 8 10 12 12 11 10 10 9 9 8 6 3 2 3 4 6 7 7 9 9 9 9 8 8 8 8 8 8 8 8 8 8 8 7 7 8 8 8 8 8 8 8
12 9 9 10 5 4 12 12 12 10 9 9 9 2 7 4 4 5 6 7 8 8 9 9 9 8 8 7 7 7 8 8 7 7 7 7 7 7 8 8 8 8 8 8
9 8 10 11 10 9 11 12 12 12 9 10 11 4 8 6 5 6 6 8 8 9 9 9 9 8 8 7 7 7 7 7 7 7 7 7 7 7 7 7 8 8 7 7
6 9 12 13 7 10 12 13 13 13 11 11 12 8 6 7 7 7 7 8 9 9 9 9 9 8 7 7 6 6 6 6 7 7 7 7 7 7 7 7 7 7 7 7
7 10 12 12 6 7 11 12 14 15 15 12 10 10 5 6 7 7 8 9 10 9 9 9 8 8 8 7 7 6 6 6 6 7 7 7 7 6 7 7 7 7 7 7
6 8 9 11 10 10 12 12 13 14 14 13 11 8 2 5 7 8 8 9 9 9 9 8 8 8 8 7 7 6 6 6 6 7 7 7 7 7 7 7 7 8 7 7
8 8 10 12 10 11 15 14 14 13 12 12 12 5 5 7 7 8 8 8 8 8 7 7 7 7 6 6 6 6 6 6 7 7 7 7 7 7 8 8 8 8 8 8
7 9 8 10 10 16 7 1 7 10 10 9 6 1 3 6 7 6 5 7 7 7 6 5 5 5 5 6 6 6 6 7 7 7 7 7 7 7 7 8 8 8 7 8
7 8 9 11 14 14 6 4 6 9 9 7 7 5 6 10 10 7 5 6 6 5 5 4 4 4 4 5 6 6 7 7 7 7 7 7 8 8 8 9 9 8 8 9
7 8 11 11 14 14 7 4 2 6 10 5 6 7 9 11 8 7 7 6 6 5 4 4 4 4 4 4 5 7 7 7 7 7 7 7 7 8 9 9 9 9 9 10
12 11 13 13 13 10 3 4 5 10 2 3 4 6 7 5 4 10 8 7 6 5 4 3 3 3 3 4 5 6 6 6 6 7 7 7 8 8 9 9 9 10 10 10
11 12 13 12 14 9 5 4 4 2 4 3 3 4 5 7 8 8 8 6 6 5 4 4 3 3 3 3 5 6 6 6 6 7 8 8 9 8 9 11 10 10 11 12
8 5 5 6 2 5 2 2 4 2 2 3 4 5 6 6 6 6 6 5 5 4 4 3 4 4 3 2 3 5 5 7 8 8 9 9 10 9 9 10 11 9 9 9
5 2 4 5 3 2 2 2 2 2 2 3 3 3 4 5 5 4 4 4 4 3 3 3 4 4 3 3 3 4 6 7 9 10 10 10 10 10 9 7 7 7 7 8
3 4 6 7 2 2 3 2 3 3 3 4 4 3 3 4 4 4 4 4 3 3 3 3 4 4 4 4 4 5 6 8 10 11 10 10 10 10 10 9 7 7 7 6
6 6 6 4 1 2 2 3 3 3 3 3 3 4 3 3 4 4 4 4 4 4 4 4 4 5 4 4 5 5 7 9 11 10 10 9 9 9 10 11 12 18 15 17
Wind_Direction
194 219 222 221 230 269 282 273 272 285 320 301 291 299 306 206 214 199 191 187 191 194 175 173 176 179 179 182 182 185 186 181 181 180 184 186 187 190 193 197 192 198 203 192
198 226 231 235 233 241 248 257 261 263 306 295 296 289 269 175 209 213 197 189 187 179 169 172 175 180 184 185 187 189 189 184 185 185 187 188 186 192 197 194 187 202 201 197
217 206 212 213 217 227 237 250 265 288 298 247 278 255 203 175 178 183 193 188 186 180 177 174 179 183 186 188 189 189 188 185 187 183 180 178 177 191 192 194 191 198 199 202
232 218 199 211 220 228 236 240 260 271 272 263 283 288 228 185 204 194 188 186 180 174 178 178 181 186 190 190 188 186 187 186 185 186 188 187 193 197 197 195 187 190 198 201
213 213 210 219 223 225 243 242 252 263 265 271 246 271 269 190 239 198 186 185 176 170 176 180 183 186 189 187 184 181 182 185 188 194 194 196 202 201 193 192 186 196 194 201
234 206 223 229 227 222 217 219 229 244 250 250 254 272 276 274 329 164 167 177 173 171 173 172 173 176 182 182 180 179 179 185 188 193 197 200 202 201 197 196 189 198 193 195
219 216 214 219 207 193 207 221 221 219 222 236 179 257 279 35 29 278 180 175 174 172 170 167 170 174 177 180 178 176 178 184 188 192 196 200 200 201 203 202 198 202 196 193
206 207 201 207 220 204 207 225 242 251 240 211 179 245 264 105 133 159 171 165 169 171 168 165 165 168 174 176 177 177 178 184 188 192 197 200 201 205 205 205 201 204 205 197
210 197 172 203 216 226 211 226 243 260 269 269 236 236 219 165 175 169 158 158 167 167 164 161 160 162 166 170 172 176 178 184 190 192 193 198 202 209 206 198 201 202 202 195
232 211 174 171 190 212 239 225 220 237 243 248 236 235 238 186 184 172 168 166 166 165 166 160 160 163 162 163 165 171 177 184 188 189 193 195 199 201 198 196 195 197 196 192
230 227 181 181 203 187 193 209 223 233 249 261 256 231 107 172 170 175 170 167 166 167 165 160 157 156 159 160 163 168 174 181 185 186 188 193 196 195 192 191 192 191 190 186
213 230 224 207 191 230 212 213 213 227 228 245 271 266 110 144 153 166 158 158 158 157 157 157 153 154 161 164 165 169 174 179 182 182 182 184 190 194 192 190 188 185 185 184
185 214 219 207 193 200 219 221 223 236 246 244 250 235 127 150 161 156 152 153 152 153 156 156 158 162 164 165 166 168 176 178 178 177 178 177 183 183 183 181 177 176 178 177
211 225 236 240 226 191 207 212 216 226 232 236 243 257 168 176 173 160 154 155 155 157 161 161 161 162 162 166 168 170 171 173 176 176 178 178 179 176 172 168 165 166 167 167
220 227 232 254 265 238 229 222 213 224 242 252 248 248 231 181 172 162 157 155 156 159 163 164 163 162 165 166 168 170 170 168 173 176 178 176 172 168 163 156 154 153 152 151
220 246 231 234 234 236 239 234 225 226 237 246 256 252 130 134 149 156 160 159 157 159 163 163 164 166 170 170 172 173 172 171 174 178 178 170 163 163 161 155 148 141 137 135
210 227 234 236 221 230 233 229 228 226 230 240 243 239 154 157 156 158 158 158 153 151 155 162 164 168 171 174 175 174 173 172 174 173 169 165 163 161 157 153 146 141 138 132
232 232 238 241 224 236 238 226 245 243 238 240 253 198 164 139 125 124 139 145 142 142 143 145 152 161 169 173 174 174 171 173 172 169 166 163 160 154 151 145 140 138 135 130
231 231 238 238 233 235 214 202 222 232 234 228 225 185 147 137 137 120 111 117 122 126 134 137 141 153 165 171 175 175 172 170 170 168 163 160 157 150 145 143 138 134 128 121
201 225 238 233 243 244 231 149 196 244 235 200 201 183 168 178 199 131 125 120 116 115 115 122 134 146 153 168 176 172 171 171 170 164 156 151 150 143 138 134 130 125 121 118
200 209 228 235 240 244 98 129 191 229 238 118 175 176 181 180 48 106 117 111 112 113 112 117 125 123 142 166 171 168 165 169 162 151 147 144 140 135 132 126 125 123 119 115
218 217 219 232 239 231 100 179 225 23 53 91 134 144 132 105 104 112 114 115 116 115 112 114 115 111 122 155 165 163 162 158 149 140 135 133 130 127 126 124 122 122 122 118
238 265 254 242 255 62 63 37 43 22 84 96 111 119 128 129 126 124 121 116 112 113 116 121 121 114 104 122 153 153 149 146 137 129 125 122 118 116 120 123 124 123 124 123
190 236 253 244 201 124 116 117 96 75 88 92 103 121 135 140 137 132 126 121 114 114 120 120 117 112 100 89 108 124 132 134 130 125 120 119 118 115 112 112 118 123 127 127
234 211 231 237 217 194 168 143 117 104 105 105 103 105 124 139 142 139 131 125 119 111 108 110 115 115 108 106 108 117 128 131 126 121 119 117 113 111 102 88 74 91 78 93
223 232 243 254 113 260 120 130 142 141 118 103 102 102 100 116 128 130 127 122 121 114 109 112 114 114 113 113 113 117 126 129 126 121 121 118 116 113 111 106 87 63 73 72